User: anonymous   Login
Location: Unspecified
(0.0000°N, 0.0000°E)
Time: 18:37:56
(UTC+00:00)
Language:

GSAT 15 - Orbit

View from above orbital plane
View from above orbital plane
View from above satellite
View from above satellite

Ground track
Ground track

The orbit data is extracted from the following two-line orbital elements,

1 41028U 15065A   19107.96219069 -.00000280 +00000-0 +00000-0 0  9993
2 41028 000.0582 107.6787 0002417 285.2421 252.7814 01.00273427012600
Epoch (UTC): 17 April 2019 23:05:33
Eccentricity: 0.0002417
inclination: 0.0582°
perigee height: 35775 km
apogee height: 35796 km
right ascension of ascending node: 107.6787°
argument of perigee: 285.2421°
revolutions per day: 1.00273427
mean anomaly at epoch: 252.7814°
orbit number at epoch: 1260

The dashed part of the orbit path shows where the satellite is in the earth's shadow,  

DLR